TimePDT,TemperatureF,Dew PointF,Humidity,Sea Level PressureIn,VisibilityMPH,Wind Direction,Wind SpeedMPH,Gust SpeedMPH,PrecipitationIn,Events,Conditions,WindDirDegrees,DateUTC
12:56 AM,57.0,28.0,33,30.12,10.0,WNW,5.8,-,N/A,,Clear,300,2013-03-11 07:56:00
1:56 AM,53.1,28.9,40,30.12,10.0,West,4.6,-,N/A,,Clear,260,2013-03-11 08:56:00
2:56 AM,53.1,28.9,40,30.12,10.0,WSW,6.9,-,N/A,,Clear,250,2013-03-11 09:56:00
3:56 AM,52.0,28.9,41,30.11,10.0,WSW,4.6,-,N/A,,Clear,250,2013-03-11 10:56:00
4:56 AM,50.0,30.0,46,30.12,10.0,West,3.5,-,N/A,,Clear,280,2013-03-11 11:56:00
5:56 AM,50.0,30.0,46,30.12,10.0,West,5.8,-,N/A,,Clear,270,2013-03-11 12:56:00
6:56 AM,48.0,30.0,50,30.14,10.0,Calm,Calm,-,N/A,,Clear,0,2013-03-11 13:56:00
7:56 AM,54.0,32.0,43,30.15,10.0,NW,4.6,-,N/A,,Clear,320,2013-03-11 14:56:00
8:56 AM,61.0,30.0,31,30.16,10.0,NNE,4.6,-,N/A,,Clear,30,2013-03-11 15:56:00
9:56 AM,63.0,30.0,29,30.16,10.0,Variable,4.6,-,N/A,,Clear,0,2013-03-11 16:56:00
10:56 AM,66.0,30.9,27,30.14,10.0,North,3.5,-,N/A,,Clear,350,2013-03-11 17:56:00
11:56 AM,72.0,28.9,20,30.11,10.0,NNE,10.4,-,N/A,,Clear,30,2013-03-11 18:56:00
12:56 PM,75.9,26.1,16,30.08,10.0,North,12.7,-,N/A,,Clear,10,2013-03-11 19:56:00
1:56 PM,78.1,23.0,13,30.04,10.0,NNE,16.1,-,N/A,,Clear,20,2013-03-11 20:56:00
2:56 PM,80.1,23.0,12,30.01,10.0,NNE,11.5,-,N/A,,Clear,20,2013-03-11 21:56:00
3:56 PM,79.0,21.0,12,30.00,10.0,North,6.9,-,N/A,,Clear,350,2013-03-11 22:56:00
4:56 PM,79.0,19.9,11,29.98,10.0,North,8.1,-,N/A,,Clear,10,2013-03-11 23:56:00
5:56 PM,77.0,19.0,11,29.97,10.0,North,6.9,-,N/A,,Clear,360,2013-03-12 00:56:00
6:56 PM,73.0,21.0,14,29.97,10.0,NNW,8.1,-,N/A,,Clear,340,2013-03-12 01:56:00
7:56 PM,71.1,21.9,16,29.98,10.0,North,6.9,-,N/A,,Clear,350,2013-03-12 02:56:00
8:56 PM,69.1,23.0,18,29.98,10.0,North,8.1,-,N/A,,Clear,350,2013-03-12 03:56:00
9:56 PM,63.0,27.0,26,30.01,10.0,WSW,5.8,-,N/A,,Clear,250,2013-03-12 04:56:00
10:56 PM,60.1,27.0,28,30.01,10.0,West,9.2,-,N/A,,Clear,260,2013-03-12 05:56:00
11:56 PM,61.0,26.1,26,30.00,10.0,WSW,10.4,-,N/A,,Clear,250,2013-03-12 06:56:00